Tracking 27188 objects as of 1-Apr-2023
HD Live streaming from Space Station
objects crossing your sky now

STARLINK-5033

Track STARLINK-5033 now!
10-day predictions
STARLINK-5033 is classified as:


NORAD ID: 55412
Int'l Code: 2023-014X
Perigee: 364.1 km
Apogee: 368.4 km
Inclination: 70.0 °
Period: 91.7 minutes
Semi major axis: 6737 km
RCS: Unknown
Launch date: January 31, 2023
Source: United States (US)
Launch site: AIR FORCE WESTERN TEST RANGE (AFWTR)
Your satellite tracking list
Your tracking list is empty




NASA's NSSDC Master Catalog

Two Line Element Set (TLE):
1 55412U 23014X   23090.68430717  .00000460  00000-0  55971-5 0  9999
2 55412  69.9970 283.8199 0003125 245.1932 114.8939 15.69924822  9468
Source of the keplerian elements: AFSPC